Regional Weather Roundup
Issued by NWS Newport/Morehead, NC

Current Version | Previous Version | Graphics & Text | Print | Product List | Glossary On
Versions: 1 2 3 4 5 6 7 8 9 10 11 12 13 14 15 16 17 18 19 20 21 22 23 24 25 26 27 28 29 30 31 32 33 34 35 36 37 38 39 40 41 42 43 44 45 46 47 48 49 50
000 ASUS42 KMHX 180610 RWRMHX WEATHER ROUNDUP FOR EASTERN NORTH CAROLINA NATIONAL WEATHER SERVICE NEWPORT/MOREHEAD CITY NC 200 AM EDT THU SEP 18 2014 NOTE: "FAIR" INDICATES FEW OR NO CLOUDS BELOW 12,000 FEET WITH NO SIGNIFICANT WEATHER AND/OR OBSTRUCTIONS TO VISIBILITY NCZ015>017-031-032-045>047-102-103-180700- NORTH COAST CITY SKY/WX TMP DP RH WIND PRES REMARKS EDENTON PTCLDY 63 61 94 NE3 29.94F ELIZABETH CITY MOCLDY 67 61 81 NE6 29.95S KITTY HAWK MOCLDY 71 59 66 NE6 29.92S MANTEO MOCLDY 70 59 68 NE12 29.93F $$ NCZ045>047-081-094-103-104-180700- CENTRAL COAST CITY SKY/WX TMP DP RH WIND PRES REMARKS FRISCO CLEAR 69 62 78 NE8 29.91F SWANQUARTER N/A 66 N/A N/A NE5 29.88S $$ NCZ095-097-098-100-101-180700- SOUTHERN COAST CITY SKY/WX TMP DP RH WIND PRES REMARKS BEAUFORT CLEAR 70 66 87 NE5 29.91S CEDAR ISLAND N/A 73 N/A N/A NE9G21 29.94S JACKSONVILLE PTCLDY 67 64 90 N5 29.92S NEWPORT NOT AVBL PINEY ISLAND CLEAR 76 64 66 NE15 29.91S WILMINGTON PTCLDY 68 66 93 NE8 29.90F $$ NCZ011>013-027>030-043-044-078>080-089-090>093-098-180700- COASTAL PLAIN CITY SKY/WX TMP DP RH WIND PRES REMARKS AHOSKIE MOCLDY 61 59 94 CALM 29.96S CLINTON PTCLDY 67 65 93 CALM 29.93F ELIZABETHTOWN MOCLDY 67 66 96 CALM 29.92F GOLDSBORO PTCLDY 65 64 97 CALM 29.93S GREENVILLE CLEAR 63 61 94 CALM 29.96F FOG HAVELOCK CLEAR 69 64 84 N9 29.93S KENANSVILLE CLEAR 64 63 94 CALM 29.94F KINSTON CLEAR 65 63 93 CALM 29.95S NEW BERN CLEAR 68 62 81 N6 29.94S RICHLANDS PTCLDY 64 61 88 NE6 29.93F ROANOKE RAPIDS NOT AVBL ROCKY MOUNT MOCLDY 62 60 93 CALM 29.95F WASHINGTON PTCLDY 62 60 95 CALM 29.95R WHITEVILLE MOCLDY 69 66 89 NE3 29.91S $$ AMZ130-135-150-152-154-156-158-170-250-252-270-ANZ085-086-088-633-658-670-180700- MARINE OBSERVATIONS STATION/POSITION TIME TEMP WIND PRES WAVE SWELL AIR SEA DIR/SP/G HT/PER HT/PER (UTC) (F) (DEG/KT/KT) (MB) (FT/S) (FT/S) CHESAPEAKE LIGHT 0500 70 70/ 11/ 12 1014.9 BUOY 44014 0600 72 77 30/ 14/ 16 1012.9 5/13 3/13 DUCK 0600 72 76 50/ 13/ 15 1013.0 2E DUCK 0600 N/A 4/13 3/13 OREGON INLET 0600 72 76 40/ 12/ 15 1013.2 BUOY 44095 0600 76 N/A 5/13 3/13 20E OREGON INLET NOT AVBL HATTERAS CG 0600 73 78 40/ 10/ 15 1013.2 DIAMOND BUOY 0600 73 40/ 17/ 19 1011.9 6/ 7 3/11 CAPE LOOKOUT 0500 75 50/ 16/ 19 1012.4 BEAUFORT LAB 0600 71 79 30/ 5/ 7 1012.2 30 SE NEW RIVER 0600 78 82 40/ 12/ 14 1012.3 4/11 3/11 5 SE WRIGHTSVILL 0500 73 81 60/ 14/ 16 N/A BUOY 41002 0545 78 82 350/ 8/ 10 1011.0 5/13 5/13 BUOY 41004 0600 80 83 330/ 6/ 10 1011.8 4/13 3/13 $$

USA.gov is the U.S. government's official web portal to all federal, state and local government web resources and services.